Location: Newark
(48.6461°N, 4.3644°W)
Time: 20:52:54
(UTC+00:00)

Transit 4A - Pass Details

Date: 28 January 2020
Orbit: 872 x 973 km, 66.8° (Epoch: 22 February)

Event Time Altitude Azimuth Distance (km) Brightness Sun altitude
Rises 06:30:15 0° 213° (SSW) 3,540 10.7 -13.6°
Reaches altitude 10° 06:32:47 10° 213° (SSW) 2,587 10.0 -13.2°
Maximum altitude 06:38:47 90° 304° (NW) 899 7.8 -12.3°
Drops below altitude 10° 06:44:42 10° 35° (NE) 2,545 10.5 -11.3°
Sets 06:47:10 0° 36° (NE) 3,480 11.2 -10.9°
